Regional Weather Roundup
Issued by NWS Portland, ME

Home | Current Version | Previous Version | Text Only | Print | Product List | Glossary On
Versions: 1 2 3 4 5 6 7 8 9 10 11 12 13 14 15 16 17 18 19 20 21 22 23 24 25 26 27 28 29 30 31 32 33 34 35 36 37 38 39 40 41 42 43 44 45 46 47 48 49 50
000
ASUS41 KGYX 232110
RWRGYX
WEATHER ROUNDUP FOR MAINE AND NEW HAMPSHIRE
NATIONAL WEATHER SERVICE GRAY ME
500 PM EDT SAT JUL 23 2016

MEZ002-005-006-010-012-015-018-020-021-024-026-027-029-232200-
MAINE

CITY           SKY/WX    TMP DP  RH WIND       PRES   REMARKS
PORTLAND       CLOUDY    73  64  73 CALM      29.76R
SANFORD          N/A     75  69  81 S5        29.74S
BAR HARBOR     SUNNY     83  66  56 W8        29.69R
WISCASSET      RAIN      73  66  78 W6        29.77R
ROCKLAND       CLOUDY    77  70  79 CALM      29.71R
FRYEBURG       NOT AVBL
LEWISTONAUBURN LGT RAIN  68  65  90 S3        29.77R
AUGUSTA        CLOUDY    72  66  81 NW9       29.74R
WATERVILLE     LGT RAIN  77  67  71 W8        29.71R
BANGOR         TSTM      75  64  68 W8        29.72R
GREENVILLE       N/A     73  59  61 VRB7      29.74R
MILLINOCKET    PTSUNNY   83  60  45 W8        29.69R
HOULTON        CLOUDY    78  69  73 CALM      29.66S
PRESQUE ISLE   PTSUNNY   75  68  78 MISG      29.67S
FRENCHVILLE    MOSUNNY   77  61  57 N13G21    29.67S
CARIBOU        CLOUDY    80  67  64 W8        29.65S
$$

NHZ002-005-008-009-011-012-014-232200-
NEW HAMPSHIRE

CITY           SKY/WX    TMP DP  RH WIND       PRES   REMARKS
PORTSMOUTH     PTSUNNY   77  65  66 E8        29.72R
ROCHESTER      LGT RAIN  77  69  76 NE3       29.73R
NASHUA         PTSUNNY   93  60  33 W14G31    29.73R HX  93
MANCHESTER     CLOUDY    89  55  31 W16G23    29.72R
CONCORD        PTSUNNY   93  57  29 W13       29.73R HX  91
LACONIA        MOSUNNY   79  66  64 NE8       29.75R
PLYMOUTH       CLOUDY    76  64  64 CALM      29.77R
BERLIN         RAIN      64  61  90 SE7       29.83F FOG
WHITEFIELD     LGT RAIN  64  61  90 CALM      29.86R
JAFFREY        CLOUDY    87  54  32 NW8G21    29.80R
KEENE          CLOUDY    87  60  40 VRB7G18   29.79R
LEBANON        CLOUDY    77  59  53 N25G40    29.85R THUNDER HAZE
MT WASHINGTON  TSTM      46  46 100 NW28G41     N/A  VSB 0
$$

VTZ005-007-008-232200-
VERMONT

CITY           SKY/WX    TMP DP  RH WIND       PRES   REMARKS
ST JOHNSBURY     N/A     65  61  87 MISG      29.87R
MONTPELIER     LGT RAIN  63  60  90 CALM      29.93F
BURLINGTON     TSTM      66  60  81 VRB3      29.87S
$$

MAZ007-012-024-CTZ003-RIZ002-NYZ038-NYZ072-232200-
SOUTHERN NEW ENGLAND AND NY

CITY           SKY/WX    TMP DP  RH WIND       PRES   REMARKS
BOSTON         PTSUNNY   85  64  49 E13       29.70S
WORCESTER      SUNNY     88  53  30 W14G25    29.79S
NANTUCKET      SUNNY     77  67  71 SW14      29.76F
PROVIDENCE     MOSUNNY   93  57  29 W15G22    29.74F HX  91
HARTFORD       MOSUNNY   96  56  26 W13G20    29.75F HX  94
ALBANY         PTSUNNY   90  57  32 W17G26    29.81R
NEW YORK CITY  MOSUNNY   94  54  25 NW23G29   29.78F HX  92
$$

ANZ081-ANZ082-ANZ150-NHZ014-MEZ023>029-232200-
COASTAL MARINE OBSERVATIONS

STATION/POSITION TIME  TEMP    WIND        PRES    WAVE
                       AIR SEA DIR/SP/G            HT/PER
                 (UTC) (F)     (DEG/KT/KT) (MB)    (FT/S)
MOUNT DESERT ROC 2100   63     230/ 14/ 14 1006.1S
MATINICUS ROCK   2100   66     210/ 13/ 14 1005.8R
ISLE OF SHOALS   2100   74     110/  6/  7 1006.7R
JEFFREYS LEDGE   2008      72                N/A     2/ 7
CASHES LEDGE BUO 2050   72 71  200/  8/  8 1006.2F   3/ 7
GEORGES BANK BUO 2050   65 62              1007.8S   6/ 8
$$

.............KEY..............
   WCI - WIND CHILL
   TC  - TEMPERATURE IN CELSIUS
   VSB - VISIBILITY IN MILES
   HX  - HEAT INDEX
   FAIR- INDICATES FEW OR NO CLOUDS BELOW 12,000 FT, WITH NO
         SIGNIFICANT WEATHER AND/OR OBSTRUCTIONS TO VISIBILITY.






USA.gov is the U.S. government's official web portal to all federal, state and local government web resources and services.